[[{"header":{"parameterUnit":"m.s-1","parameterCategory":1,"la1":30.2991,"la2":30.254,"lo1":-89.0895,"lo2":-89.0444,"dy":0.0017,"dx":0.0017,"nx":28,"ny":28,"refTime":"2026-02-25T09:00:00:Z","depth":0,"parameterNumber":2,"parameterNumberName":"U-component_of_WINDS"},"data":[0,0,0,0,0,0,0,0,0,0,0,0,0,0,0,0,0,0,0,0,0,0,0,0,0,0,0,0,0,0,0,0,0,0,0,0,0,0,0,0,0,0,0,0,0,0,0,0,0,0,0,0,0,0,0,0,0,0,1.149,1.149,0,1.1438,1.1437,1.1437,1.1365,1.1364,1.1363,1.1362,1.131,1.131,1.1309,0,0,0,0,0,0,0,0,0,0,0,0,0,1.1531,1.1531,1.149,1.149,1.1489,1.1438,1.1437,1.1436,1.1366,1.1364,1.1363,1.1361,1.131,1.131,1.1309,0,0,0,0,0,0,0,0,0,0,0,0,0,1.15,1.153,1.149,1.1447,1.1443,1.1438,1.1437,1.1436,1.1366,1.1364,1.1362,1.1361,1.131,1.131,1.1309,1.1343,0,0,1.1308,1.1308,0,0,0,0,0,0,0,0,1.1501,1.1498,1.1454,1.145,1.1445,1.1406,1.1432,1.1405,1.1366,1.1395,1.1362,1.136,1.1344,1.134,1.1334,1.134,1.1338,1.1308,1.1308,1.1308,1.1308,0,0,0,0,0,0,0,1.1504,1.15,1.147,1.1454,1.1448,1.1431,1.1425,1.1427,1.138,1.1393,1.1387,1.1382,1.1341,1.1335,1.1333,1.1337,1.1308,1.1308,1.1307,1.1307,1.1369,1.137,0,0,0,0,0,0,1.1512,1.1502,1.1471,1.1468,1.147,1.1432,1.1425,1.1421,1.138,1.1372,1.1384,1.1379,1.1337,1.1333,1.1331,1.1367,1.1308,1.1307,1.1307,1.1367,1.1369,1.1371,0,0,0,0,0,0,1.1513,1.151,1.1473,1.1484,1.1478,1.1433,1.1429,1.1421,1.1415,1.1373,1.1365,1.1386,1.1335,1.1331,1.134,1.1365,1.1307,1.1307,1.1365,1.1367,1.137,1.1441,0,0,0,0,0,0,1.1515,1.1511,1.1522,1.1484,1.1477,1.1484,1.1431,1.1421,1.1414,1.1407,1.1373,1.1366,1.1333,1.1341,1.134,1.1363,1.1306,1.1362,1.1366,1.1369,1.1437,1.1446,1.1454,0,0,0,0,0,1.1516,1.1545,1.1523,1.152,1.1491,1.1485,1.1481,1.1442,1.1416,1.1428,1.1401,1.1367,1.1362,1.1343,1.1341,1.1364,1.1361,1.1365,1.1369,1.1433,1.1444,1.1454,0,0,0,0,0,0,1.1587,1.1539,1.1515,1.1532,1.1513,1.1473,1.1487,1.1456,1.1445,1.1439,1.1392,1.1385,1.14,1.1383,1.1362,1.1395,1.1356,1.136,1.1405,1.1416,1.1425,1.1429,1.1306,0,0,0,0,0,1.1605,1.1603,1.1561,1.158,1.1572,1.1531,1.1527,1.1499,1.1478,1.147,1.1444,1.1425,1.142,1.1417,1.1409,1.1434,1.1426,1.1449,1.1458,1.1465,1.1469,1.1482,1.1492,1.1385,1.1385,1.1385,0,0,1.1641,1.1615,1.1617,1.1594,1.1576,1.1577,1.1525,1.1527,1.1527,1.147,1.1477,1.1458,1.1434,1.1451,1.1457,1.1437,1.1497,1.1471,1.1477,1.1477,1.1487,1.1497,1.1506,1.1388,1.1387,1.1387,0,0,1.1707,1.1687,1.1701,1.1684,1.1658,1.163,1.1634,1.1599,1.1583,1.1589,1.1547,1.1547,1.1538,1.1522,1.1514,1.1575,1.1544,1.1574,1.1621,1.1634,1.1642,1.1649,1.1672,1.1681,1.1578,1.1579,1.1579,0,1.1756,1.1754,1.1712,1.1717,1.1709,1.1657,1.1671,1.1657,1.163,1.1626,1.1603,1.1591,1.1572,1.1585,1.16,1.1594,1.1597,1.1578,1.1644,1.1651,1.1657,1.1678,1.1687,1.1583,1.1582,1.1582,1.1581,0,1.1815,1.1815,1.1829,1.1804,1.1797,1.1807,1.1767,1.1766,1.1739,1.1714,1.1721,1.1696,1.1683,1.1684,1.1657,1.1694,1.1682,1.1653,1.1613,1.1672,1.1691,1.1699,1.1588,1.1587,1.1586,1.1585,0,0,1.1924,1.1876,1.1882,1.187,1.1838,1.1837,1.1845,1.1831,1.1831,1.1815,1.182,1.1814,1.1787,1.1777,1.1749,1.176,1.1811,1.1729,1.1728,1.1746,1.1851,1.1873,1.1883,1.179,1.1791,1.1792,1.1853,0,1.1985,1.1994,1.1957,1.1977,1.1977,1.1928,1.1935,1.1916,1.1894,1.189,1.1865,1.1862,1.1826,1.182,1.1829,1.1803,1.1832,1.1798,1.1796,1.1796,1.1803,1.1893,1.1916,1.1975,1.186,1.1861,1.1862,0,1.2056,1.2043,1.2063,1.203,1.2028,1.2035,1.202,1.2018,1.1996,1.1979,1.1968,1.1935,1.1941,1.1904,1.1912,1.189,1.1887,1.1874,1.1876,1.1874,1.1833,1.1894,1.1992,1.2001,1.1873,1.1872,1.1871,0,1.2134,1.2122,1.2132,1.2123,1.2085,1.2091,1.2076,1.2052,1.2047,1.2034,1.203,1.2019,1.2013,1.2005,1.197,1.1945,1.1983,1.1942,1.1969,1.197,1.1979,1.1979,1.2079,1.1977,1.1977,1.1977,1.1976,0,1.2205,1.2219,1.2167,1.2173,1.2188,1.2145,1.2161,1.2141,1.2121,1.2123,1.208,1.2084,1.2037,1.2035,1.2008,1.202,1.2017,1.2004,1.1997,1.2008,1.201,1.2006,1.2001,1.1979,1.1978,1.1978,1.1978,0,1.2295,1.226,1.2268,1.2231,1.2223,1.2235,1.2204,1.2209,1.2184,1.2188,1.2186,1.2147,1.2143,1.2107,1.2095,1.2077,1.2099,1.2084,1.2107,1.2102,1.2132,1.213,1.2232,1.2243,1.2134,1.2135,1.2136,0,1.2342,1.2352,1.2317,1.2315,1.2302,1.23,1.2294,1.2253,1.2249,1.2226,1.2234,1.2226,1.2218,1.2214,1.2185,1.2176,1.216,1.2197,1.2158,1.217,1.2161,1.2161,1.2162,1.2205,1.2206,1.2207,1.2208,0,1.2431,1.2414,1.2407,1.2395,1.2389,1.2377,1.2363,1.2365,1.2319,1.2317,1.2312,1.2306,1.2294,1.2288,1.2274,1.2258,1.2226,1.2221,1.2226,1.2238,1.2251,1.2245,1.2129,1.2218,1.2217,1.2217,1.2216,1.2216,1.2501,1.2508,1.2484,1.2479,1.2464,1.2452,1.2455,1.243,1.2426,1.2412,1.2389,1.2388,1.2367,1.2345,1.2332,1.2331,1.2312,1.2321,1.2323,1.2326,1.2332,1.2251,1.2328,1.2328,1.2328,1.2327,1.2327,0,1.2588,1.2571,1.2566,1.2547,1.2543,1.2513,1.2496,1.2495,1.2495,1.2477,1.247,1.2466,1.2459,1.243,1.2421,1.2426,1.2411,1.2425,1.2424,1.2421,1.2349,1.2345,1.2437,1.2437,1.2437,1.2437,1.2437,1.2437,1.2632,1.2642,1.2623,1.2625,1.2608,1.2606,1.2599,1.2589,1.2575,1.2571,1.2566,1.2547,1.2525,1.2514,1.2507,1.2499,1.2498,1.2517,1.2504,1.2437,1.2426,1.2416,1.2412,1.2517,1.2517,1.2576,1.2576,1.2577]},{"header":{"parameterUnit":"m.s-1","parameterCategory":1,"la1":30.2991,"la2":30.254,"lo1":-89.0895,"lo2":-89.0444,"dy":0.0017,"dx":0.0017,"nx":28,"ny":28,"refTime":"2026-02-25T09:00:00:Z","depth":0,"parameterNumber":3,"parameterNumberName":"V-component_of_WINDS"},"data":[0,0,0,0,0,0,0,0,0,0,0,0,0,0,0,0,0,0,0,0,0,0,0,0,0,0,0,0,0,0,0,0,0,0,0,0,0,0,0,0,0,0,0,0,0,0,0,0,0,0,0,0,0,0,0,0,0,0,5.9727,5.9727,0,5.973,5.973,5.973,5.9678,5.9677,5.9676,5.9674,5.9676,5.9677,5.9679,0,0,0,0,0,0,0,0,0,0,0,0,0,5.9677,5.9678,5.9727,5.9727,5.9727,5.973,5.973,5.973,5.9679,5.9677,5.9675,5.9674,5.9676,5.9677,5.9679,0,0,0,0,0,0,0,0,0,0,0,0,0,5.9691,5.9678,5.9727,5.9702,5.97,5.973,5.973,5.973,5.9679,5.9677,5.9675,5.9673,5.9675,5.9677,5.9679,5.9733,0,0,5.9685,5.9686,0,0,0,0,0,0,0,0,5.969,5.9693,5.9705,5.9704,5.9701,5.9702,5.9713,5.9731,5.968,5.9687,5.9674,5.9672,5.9686,5.9687,5.9692,5.9733,5.9733,5.9685,5.9686,5.9687,5.9688,0,0,0,0,0,0,0,5.9689,5.9692,5.9728,5.9706,5.9703,5.969,5.969,5.9716,5.9698,5.9686,5.9682,5.9683,5.9685,5.969,5.9692,5.9733,5.9685,5.9687,5.9688,5.9689,5.982,5.9823,0,0,0,0,0,0,5.9692,5.9692,5.9728,5.9728,5.969,5.9693,5.9693,5.9704,5.9698,5.9695,5.9685,5.9681,5.9688,5.969,5.9692,5.9756,5.9687,5.9689,5.969,5.9818,5.9821,5.9823,0,0,0,0,0,0,5.9691,5.9695,5.9728,5.9709,5.9712,5.9696,5.9709,5.9705,5.971,5.9697,5.9694,5.9694,5.9686,5.9689,5.9724,5.9755,5.969,5.9692,5.9815,5.9819,5.9822,5.9884,0,0,0,0,0,0,5.969,5.9695,5.9716,5.971,5.9713,5.976,5.9711,5.9706,5.9714,5.9709,5.9705,5.9702,5.9685,5.9721,5.9726,5.9757,5.9694,5.9813,5.9817,5.9821,5.9879,5.9889,5.9897,0,0,0,0,0,5.9688,5.9732,5.9717,5.9722,5.9738,5.9762,5.9764,5.9743,5.9717,5.9737,5.9729,5.9702,5.9751,5.9725,5.973,5.9762,5.981,5.9816,5.9821,5.9875,5.9887,5.9897,0,0,0,0,0,0,5.9741,5.9731,5.9714,5.9758,5.9761,5.9753,5.9778,5.9757,5.9767,5.9762,5.9736,5.9735,5.9775,5.9771,5.9743,5.9815,5.9776,5.9782,5.9815,5.9827,5.9836,5.9836,5.9695,0,0,0,0,0,5.9758,5.9778,5.9768,5.9807,5.981,5.9794,5.9803,5.9788,5.979,5.9791,5.9785,5.9788,5.9804,5.9815,5.9829,5.9878,5.9877,5.9903,5.9912,5.992,5.9926,5.9953,5.9964,5.984,5.984,5.984,0,0,5.9793,5.979,5.9804,5.9818,5.9819,5.9841,5.9796,5.982,5.9836,5.9794,5.9827,5.9824,5.9825,5.9868,5.9886,5.9866,5.996,5.9926,5.9933,5.9934,5.9959,5.9971,5.9981,5.9844,5.9843,5.9843,0,0,5.9867,5.9867,5.99,5.9903,5.9905,5.9895,5.9903,5.9899,5.9895,5.9927,5.9898,5.9916,5.9944,5.9947,5.9952,6.003,6.0006,6.0036,6.0084,6.0111,6.0121,6.0129,6.0158,6.0168,6.0041,6.0042,6.0042,0,5.991,5.9941,5.992,5.9947,5.9955,5.992,5.9954,5.9957,5.9964,5.997,5.9948,5.9984,5.9982,6.0026,6.0045,6.005,6.0059,6.0036,6.0121,6.0129,6.0137,6.0164,6.0175,6.0045,6.0045,6.0044,6.0044,0,5.9994,6.0017,6.0044,6.0053,6.0063,6.0094,6.0077,6.0091,6.0075,6.0067,6.0101,6.0099,6.0112,6.0121,6.0105,6.0163,6.0151,6.0125,6.0086,6.0153,6.0178,6.0188,6.005,6.0049,6.0048,6.0047,0,0,6.0101,6.0099,6.011,6.0114,6.0115,6.0132,6.0161,6.0176,6.0188,6.0194,6.0219,6.0244,6.0221,6.0227,6.0211,6.0235,6.0298,6.0206,6.0206,6.0224,6.0363,6.0383,6.0395,6.0283,6.0285,6.0286,6.0363,0,6.0174,6.0225,6.0207,6.0259,6.028,6.0248,6.0274,6.0278,6.0272,6.0289,6.0281,6.03,6.0268,6.0271,6.0293,6.0286,6.0326,6.028,6.0305,6.0307,6.0306,6.0408,6.0428,6.0502,6.0373,6.0375,6.0376,0,6.0266,6.0278,6.0332,6.0331,6.0339,6.0363,6.0375,6.0392,6.0396,6.039,6.0398,6.0377,6.0407,6.0368,6.0408,6.0377,6.0386,6.0385,6.0387,6.0389,6.0345,6.0413,6.0524,6.0535,6.0391,6.039,6.0389,0,6.0339,6.0368,6.0405,6.041,6.0409,6.0427,6.0428,6.043,6.044,6.0451,6.0458,6.0471,6.0479,6.049,6.0475,6.0448,6.0518,6.0477,6.0514,6.0514,6.0529,6.0529,6.0644,6.0535,6.0535,6.0535,6.0535,0,6.0423,6.0458,6.0438,6.0461,6.0499,6.0479,6.0517,6.0514,6.0517,6.0538,6.0511,6.0532,6.051,6.0529,6.0517,6.0552,6.0556,6.0552,6.0548,6.0554,6.0555,6.056,6.0555,6.0538,6.0537,6.0536,6.0536,0,6.0511,6.05,6.0538,6.0535,6.0536,6.0564,6.0562,6.0583,6.0575,6.0603,6.0608,6.0596,6.0617,6.0603,6.0623,6.0615,6.0662,6.0651,6.0662,6.0659,6.0696,6.0693,6.0819,6.0835,6.0716,6.0717,6.0718,0,6.0565,6.0592,6.0593,6.0606,6.0609,6.063,6.0641,6.0623,6.0635,6.0643,6.0663,6.0682,6.0696,6.0731,6.0724,6.074,6.073,6.0773,6.0732,6.0738,6.0731,6.073,6.0733,6.0781,6.0782,6.0784,6.0785,0,6.0663,6.0657,6.0674,6.069,6.0705,6.0716,6.0725,6.0737,6.0719,6.0734,6.0756,6.0768,6.079,6.0809,6.0822,6.0823,6.0801,6.0798,6.0807,6.0814,6.0819,6.0818,6.0685,6.0795,6.0794,6.0793,6.0792,6.0792,6.0736,6.0759,6.0764,6.0785,6.079,6.08,6.082,6.0816,6.0834,6.0851,6.0839,6.0866,6.087,6.0886,6.089,6.091,6.0892,6.0906,6.0909,6.0913,6.0919,6.0816,6.0912,6.0912,6.0912,6.0911,6.0911,0,6.0834,6.0836,6.0855,6.087,6.0887,6.0866,6.0876,6.0891,6.0914,6.0921,6.0936,6.0962,6.0981,6.0976,6.0994,6.1011,6.1001,6.1016,6.1015,6.1015,6.0933,6.0924,6.1023,6.1023,6.1023,6.1023,6.1023,6.1023,6.0886,6.0924,6.0919,6.0959,6.0961,6.0987,6.0994,6.1003,6.1009,6.1039,6.1056,6.1053,6.1055,6.1073,6.109,6.1088,6.1096,6.1114,6.1109,6.1032,6.1021,6.101,6.1001,6.1116,6.1116,6.1189,6.119,6.119]}]]